Weather History for Des Moines, IA

Change the Weather History Date:

Monday, April 22, 2013

  Actual Average Record
Temperature  
Mean Temperature 53 °F 54 °F  
Max Temperature 68 °F 65 °F 93 °F (1980)
Min Temperature 37 °F 44 °F 26 °F (1986)
Degree Days  
Heating Degree Days 12 11  
Month to date heating degree days 413 333  
Since 1 July heating degree days 5742 5960  
Cooling Degree Days 0 1  
Month to date cooling degree days 0 5  
Year to date cooling degree days 0 6  
Growing Degree Days 4 (Base 50)    
Moisture  
Dew Point 45 °F    
Average Humidity 69    
Maximum Humidity 96    
Minimum Humidity 42    
Precipitation  
Precipitation 0.16 in 0.15 in 1.56 in (1950)
Month to date precipitation 6.53 2.62  
Year to date precipitation 11.05 7.20  
Snow  
Snow 0.00 in 0.00 in T in (1992)
Month to date snowfall T 1.6  
Since 1 July snowfall 48.3 35.1  
Snow Depth 0.00 in    
Sea Level Pressure  
Sea Level Pressure 30.06 in    
Wind  
Wind Speed 12 mph (SSE)    
Max Wind Speed 26 mph    
Max Gust Speed 35 mph    
Visibility 9 miles    
Events Rain    
T = Trace of Precipitation, MM = Missing Value Source: NWS Daily Summary

Daily Weather History Graph

Daily Weather History Graph

Search for Another Location

Airport:

Trip Planner

Search our weather history database for the weather conditions in past years. The results will help you decide how hot, cold, wet, or windy it might be!

Date:

Astronomy

Apr. 22, 2013 Rise Set
Actual Time 6:23 AM CDT 8:03 PM CDT
Civil Twilight 5:54 AM CDT 8:32 PM CDT
Nautical Twilight 5:18 AM CDT 9:08 PM CDT
Astronomical Twilight 4:41 AM CDT 9:46 PM CDT
Moon 4:50 PM CDT (4/22) 4:21 AM CDT (4/22)
Length of Visible Light 14h 38m
Length of Day
13h 39m
Waxing Gibbous, 88% of the Moon is Illuminated
Apr 22
Waxing Gibbous
Apr 25
Full
May 2
Last Quarter
May 9
New
May 17
First Quarter

Hourly Weather History & Observations

Time (CDT) Temp. Windchill Dew Point Humidity Pressure Visibility Wind Dir Wind Speed Gust Speed Precip Events Conditions
12:10 AM 55.0 °F - 46.9 °F 74% 30.16 in 10.0 mi North 9.2 mph - 0.00 in Rain Light Rain
12:54 AM 52.0 °F - 48.9 °F 89% 30.18 in 6.0 mi NNE 9.2 mph - 0.07 in Rain Light Rain
1:54 AM 52.0 °F - 50.0 °F 93% 30.16 in 10.0 mi East 4.6 mph - 0.03 in Rain Light Rain
2:54 AM 52.0 °F - 50.0 °F 93% 30.13 in 5.0 mi ESE 5.8 mph - 0.03 in Rain Light Rain
3:54 AM 52.0 °F - 48.9 °F 89% 30.11 in 8.0 mi ESE 9.2 mph - 0.02 in Rain Light Rain
4:54 AM 52.0 °F - 48.0 °F 86% 30.11 in 10.0 mi SE 6.9 mph - 0.00 in   Overcast
5:54 AM 50.0 °F - 46.9 °F 89% 30.10 in 10.0 mi SSE 6.9 mph - N/A   Overcast
6:54 AM 50.0 °F - 46.0 °F 86% 30.10 in 10.0 mi SSE 5.8 mph - 0.00 in   Overcast
7:54 AM 52.0 °F - 44.1 °F 74% 30.10 in 10.0 mi SSE 9.2 mph - 0.00 in Rain Light Rain
8:54 AM 53.1 °F - 44.1 °F 71% 30.09 in 10.0 mi SSE 10.4 mph - 0.00 in   Overcast
9:54 AM 54.0 °F - 44.1 °F 69% 30.09 in 10.0 mi South 12.7 mph - 0.00 in Rain Light Rain
10:54 AM 55.0 °F - 44.1 °F 67% 30.09 in 10.0 mi South 12.7 mph - 0.00 in   Overcast
11:54 AM 55.9 °F - 44.1 °F 64% 30.07 in 10.0 mi South 9.2 mph - N/A   Overcast
12:54 PM 59.0 °F - 45.0 °F 60% 30.04 in 10.0 mi SE 9.2 mph - N/A   Overcast
1:54 PM 64.9 °F - 46.0 °F 50% 29.99 in 10.0 mi South 11.5 mph - N/A   Overcast
2:54 PM 66.9 °F - 45.0 °F 45% 29.96 in 10.0 mi South 13.8 mph - N/A   Overcast
3:54 PM 66.9 °F - 43.0 °F 42% 29.94 in 10.0 mi SSE 16.1 mph - N/A   Overcast
4:54 PM 66.0 °F - 42.1 °F 42% 29.92 in 10.0 mi South 17.3 mph - 0.00 in   Overcast
5:54 PM 60.1 °F - 46.0 °F 60% 29.95 in 9.0 mi SSW 13.8 mph 24.2 mph 0.00 in Rain Light Rain
6:54 PM 55.9 °F - 48.0 °F 75% 29.98 in 10.0 mi SW 11.5 mph - 0.01 in Rain Light Rain
7:54 PM 54.0 °F - 48.0 °F 80% 30.01 in 5.0 mi SW 13.8 mph - 0.02 in Rain Light Rain
8:54 PM 48.0 °F - 45.0 °F 89% 30.04 in 7.0 mi WNW 20.7 mph - 0.03 in Rain Light Rain
9:01 PM 46.9 °F - 43.0 °F 86% 30.04 in 9.0 mi WNW 17.3 mph - 0.00 in Rain Light Rain
9:54 PM 43.0 °F 35.1 °F 39.9 °F 89% 30.07 in 10.0 mi NW 17.3 mph - 0.02 in Rain Light Rain
10:54 PM 39.9 °F 30.8 °F 37.0 °F 89% 30.09 in 10.0 mi NW 18.4 mph - 0.00 in Rain Light Rain
11:54 PM 39.0 °F 31.4 °F 35.1 °F 86% 30.06 in 10.0 mi NNW 12.7 mph - 0.00 in   Overcast